sat.trackr.live / text

‹ back to catalog

STARLINK-32388

NORAD 62144 · 2024-224F

PAYLOAD ACTIVE UNKNOWN

§ Identity

Operator
Country
US
Launch date
2024-11-30
Launch site
AFETR
Launch vehicle
Mass (kg)
RCS (m²)

Purposes: comms

External: N2YO · Heavens-Above · Gunter

§ Orbital elements

Epoch: 2026-05-25T04:37:09.039936Z

Period
94.27 min
Inclination
43.0014°
Eccentricity
0.0001473
Mean motion
15.27593038 rev/d
Perigee alt
482.0 km
Apogee alt
484.0 km
Semi-major
6,861.1 km
B*
6.2058e-4
RAAN
93.5330°
Arg perigee
267.7572°
Mean anomaly
92.3111°
Rev number
8,409

§ Raw data

STARLINK-323881 62144U 24224F   26145.19246574  .00016861  00000+0  62058-3 0  99922 62144  43.0014  93.5330 0001473 267.7572  92.3111 15.27593038 84096

JSON: /api/v1/satellites/62144 · /tle

For live sub-satellite position, see the globe view (requires WebGL).

§ Visibility from observer

Set your observer location to see the next 7 days of passes ≥ 10°. The values pass through the URL so the page stays shareable.

No JS? Fill the form by hand. The geolocation button needs JavaScript.